Time,TemperatureF,DewpointF,PressureIn,WindDirection,WindDirectionDegrees,WindSpeedMPH,WindSpeedGustMPH,Humidity,HourlyPrecipIn,Conditions,Clouds,dailyrainin,SoftwareType,DateUTC
2013-01-16 00:02:00,21.0,19.0,30.17,NNE,24,0.0,0.0,91,0.00,,,0.00,,2013-01-16 06:02:00,
2013-01-16 00:12:00,21.0,19.0,30.17,NNE,24,0.0,0.0,91,0.00,,,0.00,,2013-01-16 06:12:00,
2013-01-16 00:22:00,21.0,19.0,30.17,NNE,24,0.0,0.0,92,0.00,,,0.00,,2013-01-16 06:22:00,
2013-01-16 00:32:00,22.0,20.0,30.16,NNE,24,0.0,0.0,91,0.00,,,0.00,,2013-01-16 06:32:00,
2013-01-16 00:43:00,22.0,20.0,30.16,NNE,24,0.0,0.0,91,0.00,,,0.00,,2013-01-16 06:43:00,
2013-01-16 00:53:00,22.0,20.0,30.16,NNE,24,0.0,0.0,91,0.00,,,0.00,,2013-01-16 06:53:00,
2013-01-16 01:02:00,21.0,19.0,30.15,NNE,24,0.0,0.0,91,0.00,,,0.00,,2013-01-16 07:02:00,
2013-01-16 01:12:00,21.0,19.0,30.15,NNE,24,0.0,0.0,91,0.00,,,0.00,,2013-01-16 07:12:00,
2013-01-16 01:22:00,21.0,19.0,30.15,NNE,24,0.0,0.0,91,0.00,,,0.00,,2013-01-16 07:22:00,
2013-01-16 01:32:00,21.0,19.0,30.16,NNE,24,0.0,0.0,92,0.00,,,0.00,,2013-01-16 07:32:00,
2013-01-16 01:42:00,21.0,19.0,30.16,NNE,24,0.0,0.0,92,0.00,,,0.00,,2013-01-16 07:42:00,
2013-01-16 01:52:00,22.0,20.0,30.16,NNE,24,0.0,0.0,91,0.00,,,0.00,,2013-01-16 07:52:00,
2013-01-16 02:02:00,22.0,20.0,30.16,NW,314,0.0,3.0,92,0.00,,,0.00,,2013-01-16 08:02:00,
2013-01-16 02:12:00,22.0,20.0,30.16,NW,314,0.0,3.0,92,0.00,,,0.00,,2013-01-16 08:12:00,
2013-01-16 02:22:00,22.0,20.0,30.16,NW,314,0.0,2.0,92,0.00,,,0.00,,2013-01-16 08:22:00,
2013-01-16 02:32:00,22.0,20.0,30.16,NW,314,1.0,3.0,92,0.00,,,0.00,,2013-01-16 08:32:00,
2013-01-16 02:42:00,22.0,20.0,30.16,NW,314,1.0,3.0,92,0.00,,,0.00,,2013-01-16 08:42:00,
2013-01-16 02:53:00,22.0,20.0,30.17,NW,314,0.0,2.0,92,0.00,,,0.00,,2013-01-16 08:53:00,
2013-01-16 03:02:00,23.0,21.0,30.16,NW,314,0.0,3.0,92,0.00,,,0.00,,2013-01-16 09:02:00,
2013-01-16 03:12:00,23.0,21.0,30.16,NW,314,0.0,3.0,92,0.00,,,0.00,,2013-01-16 09:12:00,
2013-01-16 03:22:00,23.0,21.0,30.15,WNW,284,1.0,2.0,91,0.00,,,0.00,,2013-01-16 09:22:00,
2013-01-16 03:32:00,23.0,21.0,30.15,WNW,284,0.0,4.0,91,0.00,,,0.00,,2013-01-16 09:32:00,
2013-01-16 03:42:00,23.0,21.0,30.15,WNW,284,0.0,4.0,91,0.00,,,0.00,,2013-01-16 09:42:00,
2013-01-16 03:53:00,23.0,21.0,30.15,WNW,286,1.0,3.0,92,0.00,,,0.00,,2013-01-16 09:53:00,
2013-01-16 04:02:00,23.0,21.0,30.14,West,272,2.0,5.0,91,0.00,,,0.00,,2013-01-16 10:02:00,
2013-01-16 04:12:00,23.0,21.0,30.14,West,272,2.0,5.0,91,0.00,,,0.00,,2013-01-16 10:12:00,
2013-01-16 04:22:00,23.0,21.0,30.13,West,279,0.0,3.0,91,0.00,,,0.00,,2013-01-16 10:22:00,
2013-01-16 04:32:00,22.0,20.0,30.12,West,265,1.0,4.0,91,0.00,,,0.00,,2013-01-16 10:32:00,
2013-01-16 04:42:00,22.0,20.0,30.12,West,265,1.0,4.0,91,0.00,,,0.00,,2013-01-16 10:42:00,
2013-01-16 04:53:00,22.0,20.0,30.11,West,265,0.0,3.0,91,0.00,,,0.00,,2013-01-16 10:53:00,
2013-01-16 05:02:00,21.0,19.0,30.11,West,265,0.0,0.0,91,0.00,,,0.00,,2013-01-16 11:02:00,
2013-01-16 05:12:00,21.0,19.0,30.11,West,265,0.0,0.0,91,0.00,,,0.00,,2013-01-16 11:12:00,
2013-01-16 05:22:00,20.0,18.0,30.10,West,265,0.0,2.0,91,0.00,,,0.00,,2013-01-16 11:22:00,
2013-01-16 05:32:00,20.0,18.0,30.10,West,265,0.0,2.0,92,0.00,,,0.00,,2013-01-16 11:32:00,
2013-01-16 05:42:00,20.0,18.0,30.10,West,265,0.0,2.0,92,0.00,,,0.00,,2013-01-16 11:42:00,
2013-01-16 05:53:00,19.0,17.0,30.09,West,265,0.0,1.0,92,0.00,,,0.00,,2013-01-16 11:53:00,
2013-01-16 06:03:00,19.0,17.0,30.09,West,265,0.0,1.0,92,0.00,,,0.00,,2013-01-16 12:03:00,
2013-01-16 06:13:00,19.0,17.0,30.09,West,265,0.0,1.0,92,0.00,,,0.00,,2013-01-16 12:13:00,
2013-01-16 06:22:00,19.0,17.0,30.09,West,265,0.0,2.0,92,0.00,,,0.00,,2013-01-16 12:22:00,
2013-01-16 06:33:00,19.0,17.0,30.08,West,265,0.0,2.0,92,0.00,,,0.00,,2013-01-16 12:33:00,
2013-01-16 06:43:00,19.0,17.0,30.08,West,265,0.0,2.0,92,0.00,,,0.00,,2013-01-16 12:43:00,
2013-01-16 06:53:00,18.0,16.0,30.09,West,266,0.0,3.0,91,0.00,,,0.00,,2013-01-16 12:53:00,
2013-01-16 07:03:00,18.0,16.0,30.10,West,269,0.0,3.0,91,0.00,,,0.00,,2013-01-16 13:03:00,
2013-01-16 07:12:00,18.0,16.0,30.10,West,269,0.0,3.0,91,0.00,,,0.00,,2013-01-16 13:12:00,
2013-01-16 07:22:00,18.0,15.0,30.09,West,269,1.0,4.0,89,0.00,,,0.00,,2013-01-16 13:22:00,
2013-01-16 07:33:00,18.0,15.0,30.10,West,269,0.0,2.0,89,0.00,,,0.00,,2013-01-16 13:33:00,
2013-01-16 07:43:00,18.0,15.0,30.10,West,269,0.0,2.0,89,0.00,,,0.00,,2013-01-16 13:43:00,
2013-01-16 07:53:00,17.0,14.0,30.10,West,269,0.0,2.0,89,0.00,,,0.00,,2013-01-16 13:53:00,
2013-01-16 08:03:00,18.0,15.0,30.10,SW,214,1.0,4.0,89,0.00,,,0.00,,2013-01-16 14:03:00,
2013-01-16 08:12:00,18.0,15.0,30.10,SW,214,1.0,4.0,89,0.00,,,0.00,,2013-01-16 14:12:00,
2013-01-16 08:23:00,20.0,17.0,30.10,SW,221,2.0,5.0,88,0.00,,,0.00,,2013-01-16 14:23:00,
2013-01-16 08:32:00,21.0,18.0,30.11,SW,222,3.0,7.0,87,0.00,,,0.00,,2013-01-16 14:32:00,
2013-01-16 08:42:00,21.0,18.0,30.11,SW,222,3.0,7.0,87,0.00,,,0.00,,2013-01-16 14:42:00,
2013-01-16 08:53:00,22.0,19.0,30.11,SSW,211,4.0,7.0,87,0.00,,,0.00,,2013-01-16 14:53:00,
2013-01-16 09:03:00,23.0,19.0,30.11,SW,230,5.0,12.0,86,0.00,,,0.00,,2013-01-16 15:03:00,
2013-01-16 09:12:00,23.0,19.0,30.11,SW,230,5.0,12.0,86,0.00,,,0.00,,2013-01-16 15:12:00,
2013-01-16 09:23:00,24.0,20.0,30.11,SW,217,7.0,13.0,85,0.00,,,0.00,,2013-01-16 15:23:00,
2013-01-16 09:33:00,24.0,20.0,30.11,SW,218,7.0,13.0,84,0.00,,,0.00,,2013-01-16 15:33:00,
2013-01-16 09:43:00,24.0,20.0,30.11,SW,218,7.0,13.0,84,0.00,,,0.00,,2013-01-16 15:43:00,
2013-01-16 09:53:00,25.0,21.0,30.10,SW,223,5.0,12.0,83,0.00,,,0.00,,2013-01-16 15:53:00,
2013-01-16 10:03:00,26.0,21.0,30.09,WSW,247,7.0,14.0,81,0.00,,,0.00,,2013-01-16 16:03:00,
2013-01-16 10:12:00,26.0,21.0,30.09,WSW,247,7.0,14.0,81,0.00,,,0.00,,2013-01-16 16:12:00,
2013-01-16 10:22:00,26.0,19.0,30.08,SSW,212,6.0,15.0,76,0.00,,,0.00,,2013-01-16 16:22:00,
2013-01-16 10:33:00,27.0,20.0,30.07,SW,227,9.0,16.0,76,0.00,,,0.00,,2013-01-16 16:33:00,
2013-01-16 10:42:00,27.0,20.0,30.07,SW,227,9.0,16.0,76,0.00,,,0.00,,2013-01-16 16:42:00,
2013-01-16 10:53:00,28.0,21.0,30.07,SW,218,5.0,13.0,75,0.00,,,0.00,,2013-01-16 16:53:00,
2013-01-16 11:03:00,28.0,20.0,30.07,WSW,238,9.0,16.0,71,0.00,,,0.00,,2013-01-16 17:03:00,
2013-01-16 11:12:00,28.0,20.0,30.07,WSW,238,9.0,16.0,71,0.00,,,0.00,,2013-01-16 17:12:00,
2013-01-16 11:23:00,29.0,21.0,30.06,SW,223,7.0,13.0,72,0.00,,,0.00,,2013-01-16 17:23:00,
2013-01-16 11:33:00,30.0,22.0,30.06,SW,227,7.0,14.0,73,0.00,,,0.00,,2013-01-16 17:33:00,
2013-01-16 11:43:00,30.0,22.0,30.06,SW,227,7.0,14.0,73,0.00,,,0.00,,2013-01-16 17:43:00,
2013-01-16 11:53:00,30.0,22.0,30.05,SSW,212,7.0,17.0,73,0.00,,,0.00,,2013-01-16 17:53:00,
2013-01-16 12:03:00,31.0,23.0,30.03,SW,227,6.0,15.0,73,0.00,,,0.00,,2013-01-16 18:03:00,
2013-01-16 12:13:00,31.0,23.0,30.03,SW,227,6.0,15.0,73,0.00,,,0.00,,2013-01-16 18:13:00,
2013-01-16 12:23:00,31.0,23.0,30.03,SW,217,7.0,16.0,73,0.00,,,0.00,,2013-01-16 18:23:00,
2013-01-16 12:33:00,32.0,25.0,30.02,SSW,199,10.0,18.0,75,0.00,,,0.00,,2013-01-16 18:33:00,
2013-01-16 12:42:00,32.0,25.0,30.02,SSW,199,10.0,18.0,75,0.00,,,0.00,,2013-01-16 18:42:00,
2013-01-16 12:53:00,32.0,25.0,30.01,SW,225,10.0,17.0,75,0.01,,,0.01,,2013-01-16 18:53:00,
2013-01-16 13:03:00,33.0,26.0,30.00,SW,223,6.0,17.0,76,0.01,,,0.01,,2013-01-16 19:03:00,
2013-01-16 13:12:00,33.0,26.0,30.00,SW,223,6.0,17.0,76,0.01,,,0.01,,2013-01-16 19:12:00,
2013-01-16 13:23:00,33.0,25.0,30.00,SW,218,9.0,17.0,73,0.01,,,0.01,,2013-01-16 19:23:00,
2013-01-16 13:33:00,34.0,27.0,29.99,WSW,244,7.0,18.0,74,0.01,,,0.01,,2013-01-16 19:33:00,
2013-01-16 13:43:00,34.0,27.0,29.99,WSW,244,7.0,18.0,74,0.01,,,0.01,,2013-01-16 19:43:00,
2013-01-16 13:53:00,34.0,25.0,29.98,SSW,200,12.0,17.0,70,0.00,,,0.01,,2013-01-16 19:53:00,
2013-01-16 14:03:00,35.0,28.0,29.98,SW,223,8.0,17.0,74,0.00,,,0.01,,2013-01-16 20:03:00,
2013-01-16 14:12:00,35.0,28.0,29.98,SW,223,8.0,17.0,74,0.00,,,0.01,,2013-01-16 20:12:00,
2013-01-16 14:23:00,35.0,27.0,29.98,SW,214,7.0,18.0,73,0.00,,,0.01,,2013-01-16 20:23:00,
2013-01-16 14:33:00,35.0,27.0,29.96,SW,223,9.0,19.0,73,0.00,,,0.01,,2013-01-16 20:33:00,
2013-01-16 14:42:00,35.0,27.0,29.96,SW,223,9.0,19.0,73,0.00,,,0.01,,2013-01-16 20:42:00,
2013-01-16 14:53:00,35.0,27.0,29.97,SW,234,13.0,20.0,71,0.00,,,0.01,,2013-01-16 20:53:00,
2013-01-16 15:03:00,35.0,27.0,29.98,SW,225,9.0,20.0,71,0.00,,,0.01,,2013-01-16 21:03:00,
2013-01-16 15:12:00,35.0,27.0,29.98,SW,225,9.0,20.0,71,0.00,,,0.01,,2013-01-16 21:12:00,
2013-01-16 15:22:00,36.0,28.0,29.98,SW,223,7.0,17.0,71,0.00,,,0.01,,2013-01-16 21:22:00,
2013-01-16 15:33:00,36.0,28.0,29.99,WSW,254,9.0,17.0,71,0.00,,,0.01,,2013-01-16 21:33:00,
2013-01-16 15:43:00,36.0,28.0,29.99,WSW,254,9.0,17.0,71,0.00,,,0.01,,2013-01-16 21:43:00,
2013-01-16 15:53:00,35.0,27.0,29.99,SW,223,8.0,19.0,71,0.00,,,0.01,,2013-01-16 21:53:00,
2013-01-16 16:02:00,35.0,27.0,30.00,SW,216,7.0,18.0,73,0.00,,,0.01,,2013-01-16 22:02:00,
2013-01-16 16:12:00,35.0,27.0,30.00,SW,216,7.0,18.0,73,0.00,,,0.01,,2013-01-16 22:12:00,
2013-01-16 16:23:00,35.0,27.0,30.01,SW,227,9.0,17.0,73,0.00,,,0.01,,2013-01-16 22:23:00,
2013-01-16 16:33:00,34.0,27.0,30.01,SW,233,6.0,12.0,76,0.00,,,0.01,,2013-01-16 22:33:00,
2013-01-16 16:43:00,34.0,27.0,30.01,SW,233,6.0,12.0,76,0.00,,,0.01,,2013-01-16 22:43:00,
2013-01-16 16:53:00,34.0,28.0,30.02,WSW,252,5.0,16.0,77,0.00,,,0.01,,2013-01-16 22:53:00,
2013-01-16 17:02:00,34.0,28.0,30.02,SSW,213,6.0,16.0,77,0.00,,,0.01,,2013-01-16 23:02:00,
2013-01-16 17:12:00,34.0,28.0,30.02,SSW,213,6.0,16.0,77,0.00,,,0.01,,2013-01-16 23:12:00,
2013-01-16 17:23:00,34.0,27.0,30.02,SSW,197,8.0,15.0,76,0.00,,,0.01,,2013-01-16 23:23:00,
2013-01-16 17:32:00,34.0,27.0,30.02,SSW,197,8.0,15.0,76,0.00,,,0.01,,2013-01-16 23:32:00,
2013-01-16 17:42:00,34.0,27.0,30.02,SSW,197,8.0,15.0,76,0.00,,,0.01,,2013-01-16 23:42:00,
2013-01-16 17:53:00,34.0,27.0,30.03,South,190,5.0,10.0,75,0.00,,,0.01,,2013-01-16 23:53:00,
2013-01-16 18:02:00,34.0,27.0,30.04,WSW,237,6.0,11.0,76,0.00,,,0.01,,2013-01-17 00:02:00,
2013-01-16 18:12:00,34.0,27.0,30.04,WSW,237,6.0,11.0,76,0.00,,,0.01,,2013-01-17 00:12:00,
2013-01-16 18:22:00,34.0,28.0,30.06,WSW,252,4.0,10.0,77,0.00,,,0.01,,2013-01-17 00:22:00,
2013-01-16 18:32:00,34.0,28.0,30.06,WSW,252,4.0,10.0,77,0.00,,,0.01,,2013-01-17 00:32:00,
2013-01-16 18:42:00,34.0,28.0,30.06,WSW,252,4.0,10.0,77,0.00,,,0.01,,2013-01-17 00:42:00,
2013-01-16 18:52:00,35.0,28.0,30.07,SW,232,6.0,11.0,75,0.00,,,0.01,,2013-01-17 00:52:00,
2013-01-16 19:02:00,35.0,28.0,30.07,SW,234,6.0,11.0,76,0.00,,,0.01,,2013-01-17 01:02:00,
2013-01-16 19:12:00,35.0,28.0,30.07,SW,234,6.0,11.0,76,0.00,,,0.01,,2013-01-17 01:12:00,
2013-01-16 19:22:00,35.0,29.0,30.08,WSW,246,6.0,12.0,77,0.00,,,0.01,,2013-01-17 01:22:00,
2013-01-16 19:32:00,34.0,28.0,30.08,SW,229,5.0,12.0,77,0.00,,,0.01,,2013-01-17 01:32:00,
2013-01-16 19:42:00,34.0,28.0,30.08,SW,229,5.0,12.0,77,0.00,,,0.01,,2013-01-17 01:42:00,
2013-01-16 19:52:00,34.0,28.0,30.09,SW,232,2.0,9.0,79,0.00,,,0.01,,2013-01-17 01:52:00,
2013-01-16 20:02:00,34.0,28.0,30.09,SW,232,2.0,9.0,79,0.00,,,0.01,,2013-01-17 02:02:00,
2013-01-16 20:12:00,34.0,28.0,30.09,SW,232,2.0,9.0,79,0.00,,,0.01,,2013-01-17 02:12:00,
2013-01-16 20:22:00,34.0,28.0,30.09,WSW,238,5.0,9.0,79,0.00,,,0.01,,2013-01-17 02:22:00,
2013-01-16 20:32:00,34.0,28.0,30.09,West,261,3.0,7.0,80,0.00,,,0.01,,2013-01-17 02:32:00,
2013-01-16 20:43:00,34.0,28.0,30.09,West,261,3.0,7.0,80,0.00,,,0.01,,2013-01-17 02:43:00,
2013-01-16 20:52:00,34.0,28.0,30.09,West,261,3.0,7.0,80,0.00,,,0.01,,2013-01-17 02:52:00,
2013-01-16 21:02:00,34.0,29.0,30.10,SW,221,3.0,8.0,81,0.00,,,0.01,,2013-01-17 03:02:00,
2013-01-16 21:12:00,34.0,29.0,30.10,SW,221,3.0,8.0,81,0.00,,,0.01,,2013-01-17 03:12:00,
2013-01-16 21:22:00,33.0,28.0,30.10,WSW,244,4.0,8.0,81,0.00,,,0.01,,2013-01-17 03:22:00,
2013-01-16 21:32:00,33.0,28.0,30.10,SW,232,3.0,7.0,82,0.00,,,0.01,,2013-01-17 03:32:00,
2013-01-16 21:42:00,33.0,28.0,30.10,SW,232,3.0,7.0,82,0.00,,,0.01,,2013-01-17 03:42:00,
2013-01-16 21:52:00,33.0,28.0,30.10,SW,221,2.0,7.0,82,0.00,,,0.01,,2013-01-17 03:52:00,
2013-01-16 22:02:00,34.0,29.0,30.10,WSW,243,4.0,8.0,81,0.00,,,0.01,,2013-01-17 04:02:00,
2013-01-16 22:12:00,34.0,28.0,30.10,WSW,250,2.0,7.0,80,0.00,,,0.01,,2013-01-17 04:12:00,
2013-01-16 22:22:00,34.0,28.0,30.10,WSW,250,2.0,7.0,80,0.00,,,0.01,,2013-01-17 04:22:00,
2013-01-16 22:32:00,34.0,28.0,30.10,SW,223,3.0,7.0,79,0.00,,,0.01,,2013-01-17 04:32:00,
2013-01-16 22:42:00,34.0,28.0,30.10,SW,223,3.0,7.0,79,0.00,,,0.01,,2013-01-17 04:42:00,
2013-01-16 22:52:00,34.0,28.0,30.11,WSW,258,2.0,7.0,80,0.00,,,0.01,,2013-01-17 04:52:00,
2013-01-16 23:04:00,34.0,29.0,30.11,SW,235,3.0,6.0,81,0.00,,,0.01,,2013-01-17 05:04:00,
2013-01-16 23:12:00,34.0,29.0,30.11,SW,235,3.0,6.0,81,0.00,,,0.01,,2013-01-17 05:12:00,
2013-01-16 23:22:00,34.0,29.0,30.11,WSW,240,2.0,7.0,81,0.00,,,0.01,,2013-01-17 05:22:00,
2013-01-16 23:33:00,34.0,29.0,30.10,WSW,242,3.0,5.0,81,0.00,,,0.01,,2013-01-17 05:33:00,
2013-01-16 23:42:00,34.0,29.0,30.10,WSW,242,3.0,5.0,81,0.00,,,0.01,,2013-01-17 05:42:00,
2013-01-16 23:53:00,34.0,29.0,30.11,SSW,213,3.0,6.0,82,0.00,,,0.01,,2013-01-17 05:53:00,